Location: Albany
(35.0000°S, 118.0000°E)
Time: 23:53:02
(UTC-04:00)

Atlas Centaur 2 - Pass Details

Date: 22 August 2017
Orbit: 459 x 1313 km, 30.4° (Epoch: 25 September)

Event Time Altitude Azimuth Distance (km) Brightness Sun altitude
Exits shadow 16:31:58 20° 42° (NE) 1,115 3.2 -26.7°
Drops below altitude 10° 16:33:50 10° 70° (ENE) 1,613 4.5 -26.3°
Sets 16:36:19 0° 85° (E) 2,526 6.0 -25.8°
